Regional Weather Roundup
Issued by NWS

Home | Current Version | Previous Version | Text Only | Print | Product List | Glossary Off
Versions: 1 2 3 4 5 6 7 8 9 10 11 12 13 14 15 16 17 18 19 20 21 22 23 24 25 26 27 28 29 30 31 32 33 34 35 36 37 38 39 40 41 42 43 44 45 46 47 48 49 50

000
ASUS43 KLOT 120503
RWRIL

ILLINOIS REGIONAL WEATHER ROUNDUP
NATIONAL WEATHER SERVICE CHICAGO/ROMEOVILLE IL
1100 PM CST THU FEB 11 2016

NOTE: "FAIR" INDICATES FEW OR NO CLOUDS BELOW 12,000 FEET WITH NO
SIGNIFICANT WEATHER AND/OR OBSTRUCTIONS TO VISIBILITY.

* THESE STATIONS ARE NOT UNDER NWS QUALITY CONTROL. THEY ALSO MAY NOT
  REPORT WEATHER SUCH AS PRECIPITATION OR FOG.

ILZ001-002-007-009-015-016-024-120600-
NORTHWEST ILLINOIS

CITY           SKY/WX    TMP DP  RH WIND       PRES   REMARKS
MOLINE         CLOUDY    22   9  57 CALM      30.26S
STERLING*      CLOUDY    18   7  62 CALM      30.23F
$$

ILZ003-004-008-010-011-017-018-120600-
NORTH CENTRAL ILLINOIS

CITY           SKY/WX    TMP DP  RH WIND       PRES   REMARKS
ROCKFORD       CLOUDY    18   6  59 SW5       30.26F WCI  11
FREEPORT*      CLOUDY    16   8  69 W3        30.26F
DE KALB*       MOCLDY    18   8  65 W6        30.24S WCI  10
$$

ILZ005-006-012>014-019>023-120600-
NORTHEAST ILLINOIS

CITY           SKY/WX    TMP DP  RH WIND       PRES   REMARKS
CHICAGO-OHARE  CLOUDY    18   7  62 W5        30.25F WCI  11
CHICAGO-MIDWAY CLOUDY    19   4  51 SW3       30.26F
AURORA         CLEAR     19  10  68 SW3       30.26F
LANSING*       PTCLDY    13   7  76 S5        30.27S WCI   5
WAUKEGAN       CLOUDY    16   6  65 SW3       30.23F
DUPAGE AIRPORT MOCLDY    12   5  73 S3        30.24F
WHEELING       CLOUDY    18   5  57 W3        30.26F
NORTHERLY ISL    N/A     21   6  52 SW5         N/A  WCI  15
$$

LMZ740>746-120600-
SOUTHERN LAKE MICHIGAN

STATION/POSITION SKY/WX   TEMP    WIND        PRES    VSBY  WAVE
                          AIR SEA DIR/SP/G                  HT/PER
                          (F)     (DEG/KT/KT) (MB)    (MI)  (FT/S)
HARRISON CRIB              21     250/ 11/ 13   N/A
BURNHAM HARBOR             20     210/  2/  7   N/A
CALUMET HARBOR             18     240/  3/  5 1024.4F
BURNS HARBOR               18     210/  6/  8 1025.7S
MICHIGAN CITY              17     170/ 10/ 11   N/A
$$

ILZ025>027-034>036-040-047-049-050-058-095>099-120600-
WEST-CENTRAL ILLINOIS

CITY           SKY/WX    TMP DP  RH WIND       PRES   REMARKS
QUINCY         CLOUDY    20  16  84 E9        30.24F WCI   9
MACOMB*        CLOUDY    23  17  77 SW6       30.28F WCI  16
$$

ILZ028>032-037-038-041>044-048-051>054-059>061-120600-
CENTRAL ILLINOIS

CITY           SKY/WX    TMP DP  RH WIND       PRES   REMARKS
BLOOMINGTON    CLOUDY    22  13  68 S7        30.26F WCI  14
DECATUR        MOCLDY    23  10  57 S3        30.27F
PEORIA         CLOUDY    24  10  55 SW6       30.27F WCI  17
LINCOLN*       CLOUDY    25  13  59 S3        30.27F
SPRINGFIELD    CLOUDY    26  13  57 S5        30.28F WCI  20
TAYLORVILLE    NOT AVBL
$$

ILZ033-039-045-046-055>057-062-063-120600-
EAST-CENTRAL ILLINOIS

CITY           SKY/WX    TMP DP  RH WIND       PRES   REMARKS
CHAMPAIGN      CLOUDY    21  13  71 CALM      30.27F
MATTOON        CLOUDY    21  10  62 CALM      30.26F
$$

ILZ079-100>102-120600-
SOUTHWEST ILLINOIS

CITY           SKY/WX    TMP DP  RH WIND       PRES   REMARKS
ALTON          CLOUDY    26  17  68 E5        30.26F WCI  20
BELLEVILLE     MOCLDY    27  15  61 VRB1      30.26R
CAHOKIA*       CLOUDY    28  12  51 SE3       30.27R
SPARTA*        MOCLDY    26  16  66 CALM      30.27R
$$

ILZ064>066-069>071-074>076-080>082-084>086-088>090-092>094-120600-
SOUTH-CENTRAL ILLINOIS

CITY           SKY/WX    TMP DP  RH WIND       PRES   REMARKS
CARBONDALE     CLOUDY    29  15  56 E7        30.24F WCI  22
MARION         CLOUDY    30  16  55 E5        30.24F WCI  25
MT. VERNON     CLOUDY    27  12  54 NE5       30.26F WCI  21
CENTRALIA*     CLOUDY    27  17  65 E5        30.25F WCI  22
SALEM*         CLOUDY    27  16  62 CALM      30.26F
$$

ILZ067-068-072-073-078-083-087-091-120600-
SOUTHEAST ILLINOIS

CITY           SKY/WX    TMP DP  RH WIND       PRES   REMARKS
LAWRENCEVILLE  CLOUDY    25  12  58 CALM      30.30S
HARRISBURG*    CLOUDY    30  19  65 E3        30.27F
$$

ABBREVIATIONS USED IN REMARKS
   TC - TEMPERATURE IN CELSIUS
  WCI - WIND CHILL INDEX
   HX - HEAT INDEX
  VSB - VISIBILITY
$$




USA.gov is the U.S. government's official web portal to all federal, state and local government web resources and services.